{"data":{"norad_id":64484,"intl_designator":"2025-133N","name":"STARLINK-34509","alt_names":[],"object_type":"PAYLOAD","status":"ACTIVE","operator":null,"country":"US","launch_date":"2025-06-23","launch_site_code":"AFETR","launch_vehicle":null,"mission":null,"orbit_class":"UNKNOWN","rcs_meters":null,"size_class":null,"mass_kg":null,"dimensions":null,"purposes":["comms"],"wikipedia_slug":null,"has_3d_model":false,"image_url":null,"decayed_at":null,"tle_current":{"epoch":"2026-09-20T19:03:20.094048Z","epoch_age_seconds":105796,"freshness":"FRESH","line1":"1 64484U 25133N   26263.79398257  .00007586  00000+0  23542-3 0  9993","line2":"2 64484  53.1626 288.1565 0001022  75.3153 284.7963 15.34397949 71095","mean_motion":15.34397949,"eccentricity":0.0001022,"inclination_deg":53.1626,"raan_deg":288.1565,"arg_perigee_deg":75.3153,"mean_anomaly_deg":284.7963,"bstar":0.00023542,"rev_number":7109,"period_min":93.847883525814,"perigee_km":462.01020172256,"apogee_km":463.40847071369,"semimajor_km":6840.8463362181,"source":"CELESTRAK","updated_at":"2026-09-21T09:00:35.360489Z"}}}